Wind_Speed
42 41 40 39 37 35 36 35 35 32 30 27 25 24 23 24 27 23 21 23 24 26 22 17 10 11 12 11 10 14 16 19 25 31 34 36 34 31 29 30 31 32 33
37 40 41 41 40 39 38 37 36 33 30 28 25 25 26 26 26 20 17 25 33 18 18 9 7 10 10 10 11 14 17 20 24 32 36 35 33 30 33 34 32 34 39
37 39 40 41 42 40 38 38 37 33 32 28 26 25 25 26 27 23 21 21 22 14 6 4 8 9 8 10 12 15 18 21 25 29 32 31 31 33 35 36 40 44 46
39 39 39 39 39 39 38 37 34 30 30 28 26 23 24 22 22 18 21 23 13 4 4 6 8 6 8 10 13 15 20 24 26 26 27 29 32 33 36 42 47 47 52
40 42 42 40 41 40 39 36 32 30 28 24 22 21 22 15 20 11 13 4 2 6 7 5 5 7 9 11 13 17 21 24 24 24 26 29 31 37 37 40 45 52 53
33 36 36 37 39 40 39 35 30 27 23 20 18 17 16 12 3 5 5 4 9 9 8 3 5 6 9 12 16 20 22 22 24 24 25 28 31 34 35 39 44 51 47
29 30 30 30 30 32 32 29 26 21 17 15 14 12 12 6 5 4 5 7 7 7 4 5 4 6 9 12 17 19 18 19 20 20 22 22 31 31 34 39 41 44 44
24 25 23 24 23 23 24 24 20 15 15 14 11 9 4 3 2 4 6 7 6 4 6 4 5 6 10 14 16 18 18 17 15 16 18 20 26 26 29 32 38 45 44
20 18 18 19 18 17 17 18 14 14 15 14 8 7 8 6 3 5 6 7 7 5 3 2 4 7 13 14 17 18 18 15 13 13 14 17 20 20 25 31 38 44 48
13 12 12 12 10 10 11 12 12 14 15 11 10 10 9 7 7 7 9 8 5 2 1 1 4 9 11 15 18 19 18 18 18 16 16 17 19 21 23 27 31 38 40
10 10 9 8 6 6 8 10 12 16 14 13 15 14 11 8 11 10 10 6 2 4 2 2 5 8 11 16 18 19 20 19 16 16 16 18 22 24 24 24 27 34 36
12 10 8 7 7 9 10 12 14 16 16 18 17 16 15 14 11 11 8 3 5 3 1 3 6 9 13 16 17 18 17 15 13 15 17 21 24 25 25 22 23 30 33
9 7 6 7 9 11 13 16 17 19 20 18 17 17 20 17 13 10 5 5 5 2 3 4 6 9 13 15 15 16 14 14 15 17 19 19 21 22 20 20 17 25 31
8 9 11 9 11 14 17 14 17 18 18 15 16 18 18 15 12 8 7 7 5 4 4 4 6 9 11 13 13 12 12 15 16 17 19 16 18 20 22 21 19 20 26
10 14 14 13 13 18 17 17 13 13 9 13 16 15 16 14 11 8 7 8 6 4 4 5 7 8 9 10 10 10 10 10 13 16 16 15 18 20 22 20 21 20 24
17 15 15 15 18 18 18 20 17 17 17 14 14 15 15 11 11 10 6 8 4 4 5 6 7 8 8 7 8 9 9 10 12 15 16 15 17 20 21 21 21 23 20
15 14 15 17 18 18 19 20 22 19 16 17 17 15 9 7 10 9 10 7 5 4 4 6 8 7 6 6 7 9 9 10 12 13 14 15 15 18 19 22 21 22 24
14 16 19 19 20 20 19 16 13 12 16 17 17 14 11 10 11 12 11 6 5 4 4 7 7 6 5 5 6 8 8 9 9 11 13 14 15 16 17 20 20 20 22
16 18 20 19 18 19 19 17 15 12 13 17 17 16 16 14 15 13 9 6 6 4 4 5 5 5 4 4 5 7 7 7 9 10 12 12 12 13 16 16 17 16 19
19 19 20 19 18 17 15 14 16 14 14 14 14 14 18 18 18 15 10 8 5 2 3 4 4 4 4 3 3 5 6 6 7 8 11 11 12 12 13 15 16 14 16
21 22 19 17 14 13 15 16 15 15 16 15 14 13 14 14 14 12 11 9 3 2 2 2 3 3 4 3 3 3 4 5 6 8 9 10 10 11 11 13 15 15 12
21 19 17 15 16 16 17 17 17 17 17 15 16 18 16 14 14 13 12 7 4 2 2 2 3 3 4 4 3 3 4 5 5 7 8 10 9 10 9 10 13 14 11
18 16 18 18 18 20 19 18 17 15 14 13 15 17 18 17 16 14 12 7 5 3 2 2 2 2 2 3 3 4 5 6 6 7 8 9 9 9 9 9 11 14 13
19 20 21 20 21 20 19 19 16 14 13 12 14 17 18 18 17 14 11 7 4 1 1 2 1 1 2 2 4 5 5 6 6 8 8 9 10 10 10 10 9 11 12
22 23 23 23 24 20 18 17 16 16 14 13 14 18 19 19 18 16 12 7 4 2 2 2 3 2 2 4 5 5 6 6 6 7 8 8 9 10 9 9 8 8 8
22 22 24 24 25 21 18 16 16 17 17 17 16 18 20 20 18 16 12 8 4 2 4 4 4 4 4 4 5 5 5 5 5 7 9 9 8 9 9 9 8 7 8
Wind_Direction
245 246 246 247 248 250 251 255 259 263 266 267 265 258 255 255 259 263 272 287 288 298 306 304 289 287 282 297 290 298 302 305 304 317 324 328 330 331 330 332 328 324 321
246 247 248 250 251 253 255 257 262 267 270 273 271 263 255 253 255 252 255 279 300 289 307 281 298 287 288 289 285 298 304 310 314 319 324 329 336 338 339 336 337 335 334
247 248 249 249 251 253 255 258 262 266 269 271 271 268 264 259 259 254 255 257 292 288 263 279 299 276 278 270 289 299 309 315 317 319 323 336 337 345 344 345 346 345 340
249 251 253 252 252 254 256 260 264 267 269 269 270 270 267 265 263 253 256 247 268 225 241 271 284 271 262 270 292 304 315 322 322 326 336 339 344 347 349 349 347 348 346
249 252 254 258 259 258 258 259 263 265 266 269 271 270 274 296 269 254 248 258 173 187 222 239 247 248 268 287 302 318 325 327 330 339 342 344 350 349 350 348 345 344 350
257 258 259 258 260 264 265 263 262 262 264 264 264 272 282 286 289 259 151 141 170 188 197 261 252 273 284 300 323 330 332 335 341 340 344 343 348 347 347 349 348 348 347
263 267 268 268 265 263 265 264 259 256 253 243 245 262 290 314 5 92 112 150 171 179 201 268 291 291 304 324 332 337 340 340 340 343 342 345 344 346 346 351 352 355 358
264 261 268 269 267 265 265 264 258 244 229 225 232 257 234 172 189 141 132 148 153 175 238 267 294 313 329 335 342 347 350 348 349 348 347 350 344 344 348 351 357 359 7
256 255 260 267 272 270 268 264 251 230 215 213 218 205 180 161 186 143 140 144 142 179 225 271 308 337 343 343 347 357 358 359 4 2 359 353 351 347 353 356 2 7 6
245 251 265 271 269 270 271 261 241 216 208 204 183 175 170 203 161 132 129 125 132 161 170 281 340 346 344 352 355 357 359 1 2 6 7 6 6 7 10 9 6 13 12
225 235 242 248 244 229 223 225 218 204 194 169 166 160 157 156 136 135 125 121 106 136 168 333 348 353 356 358 357 357 358 360 4 5 6 11 16 21 20 17 18 24 21
204 207 205 194 187 180 188 191 192 192 172 167 168 162 148 141 145 133 127 111 132 146 76 11 5 3 1 358 353 357 358 359 6 12 15 20 21 25 26 27 32 40 39
170 158 152 154 149 152 164 172 174 171 170 176 172 166 150 150 142 139 132 135 139 103 58 24 12 6 1 351 352 357 4 13 20 19 23 26 25 26 29 40 44 45 48
164 154 144 144 153 157 163 167 166 171 177 176 169 161 152 144 141 143 146 145 125 87 48 38 15 8 356 350 357 10 18 20 22 25 28 33 30 32 35 34 42 46 52
146 143 148 158 167 156 159 159 171 164 171 169 161 158 147 141 145 146 143 132 113 85 74 45 18 2 356 1 13 18 20 22 23 26 30 39 40 38 36 40 43 54 62
148 152 165 172 175 170 174 159 151 145 134 131 133 140 130 140 143 141 131 142 115 95 66 37 16 3 5 24 22 24 25 29 33 28 30 40 42 42 43 47 48 54 61
159 168 176 177 173 172 170 163 151 138 140 143 142 145 148 148 163 152 155 143 130 89 50 25 10 14 30 28 24 29 33 33 32 27 32 45 48 48 52 54 55 56 61
183 183 176 174 167 158 151 149 148 151 155 157 162 157 152 163 169 159 162 152 134 105 39 9 13 29 41 46 40 28 38 39 39 36 35 47 55 55 59 58 58 62 67
182 172 164 162 159 151 146 145 143 149 165 169 171 168 164 168 163 164 152 127 117 82 15 6 22 35 53 59 52 30 43 51 49 42 39 49 63 59 61 60 58 68 73
161 161 162 160 157 157 158 158 160 160 165 172 171 177 172 173 173 168 151 139 114 49 5 10 26 40 62 79 54 33 45 56 52 51 45 50 67 68 71 66 63 75 74
166 160 161 161 163 161 159 159 163 163 161 160 158 158 165 168 169 161 151 138 120 56 19 46 56 61 61 55 64 55 60 80 65 62 52 57 70 79 80 69 66 67 84
167 164 164 170 166 162 159 158 157 160 161 159 158 158 161 168 163 158 148 138 134 78 93 88 80 74 76 77 60 63 81 96 82 73 65 61 75 84 88 82 73 71 87
172 172 167 166 163 158 158 159 161 163 165 170 172 173 172 166 164 161 153 144 138 93 95 115 102 73 68 69 70 78 96 100 96 90 78 71 78 91 100 100 81 80 82
178 173 167 166 164 164 162 162 162 164 166 171 174 174 176 171 168 168 165 162 155 145 129 151 144 120 87 78 88 97 102 100 103 107 93 86 84 96 104 108 94 83 77
178 174 173 172 173 174 173 176 175 177 177 176 176 173 175 175 175 177 179 179 179 174 184 179 158 143 128 122 115 114 114 112 113 122 108 99 90 100 109 111 107 94 79
187 183 182 181 181 185 187 191 190 185 191 190 188 184 181 180 182 183 184 191 188 187 172 173 167 154 146 135 130 131 124 126 134 138 132 119 102 104 107 112 109 100 99
Height
1503 1507 1510 1513 1517 1520 1521 1522 1524 1528 1531 1533 1537 1538 1538 1538 1536 1539 1541 1543 1537 1535 1532 1532 1533 1534 1537 1539 1538 1538 1537 1533 1526 1519 1513 1509 1502 1496 1491 1486 1481 1475 1469
1495 1500 1503 1508 1511 1513 1515 1517 1520 1523 1525 1528 1529 1529 1530 1529 1528 1531 1533 1531 1536 1533 1531 1531 1532 1534 1537 1538 1537 1536 1534 1529 1523 1514 1508 1503 1497 1492 1486 1480 1474 1468 1458
1489 1492 1496 1500 1504 1506 1508 1511 1514 1518 1519 1521 1521 1521 1520 1521 1522 1527 1529 1528 1530 1531 1531 1532 1533 1534 1534 1536 1535 1533 1529 1524 1518 1511 1504 1499 1493 1487 1481 1474 1467 1456 1449
1483 1486 1489 1493 1496 1499 1502 1505 1509 1513 1513 1514 1514 1514 1514 1516 1510 1516 1521 1520 1521 1525 1530 1532 1534 1534 1534 1533 1532 1529 1525 1520 1514 1507 1501 1497 1490 1485 1478 1469 1458 1452 1439
1477 1480 1482 1485 1488 1492 1495 1498 1502 1505 1507 1508 1509 1509 1510 1501 1484 1517 1517 1514 1519 1524 1529 1531 1533 1533 1533 1532 1529 1525 1520 1514 1508 1502 1498 1493 1488 1481 1475 1468 1458 1447 1435
1470 1471 1477 1480 1482 1483 1486 1490 1495 1498 1501 1504 1505 1505 1508 1508 1508 1516 1514 1516 1520 1524 1527 1530 1530 1530 1530 1529 1525 1521 1515 1510 1504 1499 1496 1491 1487 1482 1475 1468 1457 1445 1431
1465 1467 1470 1472 1476 1478 1481 1483 1486 1491 1496 1499 1502 1504 1504 1506 1506 1509 1513 1516 1520 1523 1526 1528 1528 1528 1527 1525 1522 1517 1513 1508 1502 1500 1496 1492 1486 1481 1475 1467 1459 1449 1437
1461 1463 1465 1467 1470 1473 1477 1480 1484 1487 1491 1496 1498 1501 1503 1506 1507 1509 1513 1517 1519 1522 1524 1525 1526 1526 1524 1522 1518 1514 1510 1506 1503 1500 1496 1492 1488 1483 1478 1470 1459 1447 1437
1457 1459 1462 1465 1468 1471 1474 1478 1481 1485 1489 1493 1496 1499 1502 1504 1507 1509 1513 1516 1517 1520 1522 1523 1524 1524 1522 1520 1517 1513 1510 1506 1504 1501 1497 1494 1490 1485 1478 1469 1459 1447 1434
1456 1458 1460 1463 1466 1469 1472 1476 1480 1484 1488 1491 1494 1498 1500 1503 1506 1510 1513 1515 1517 1519 1520 1522 1523 1522 1521 1519 1516 1512 1509 1505 1502 1500 1497 1494 1490 1484 1479 1470 1463 1453 1443
1455 1457 1458 1460 1462 1466 1469 1473 1478 1483 1488 1491 1493 1497 1500 1503 1507 1510 1513 1515 1517 1518 1520 1521 1521 1521 1520 1518 1515 1512 1509 1506 1503 1500 1497 1494 1490 1485 1479 1473 1467 1459 1451
1454 1456 1457 1458 1459 1463 1467 1472 1477 1483 1488 1491 1492 1495 1500 1503 1507 1510 1513 1515 1517 1519 1520 1520 1521 1521 1519 1517 1515 1512 1510 1508 1505 1501 1498 1494 1490 1486 1482 1477 1472 1467 1460
1452 1455 1458 1460 1461 1465 1468 1473 1478 1483 1487 1489 1492 1495 1499 1504 1507 1511 1513 1516 1517 1518 1519 1520 1520 1518 1518 1517 1515 1513 1511 1509 1505 1503 1499 1496 1493 1490 1486 1482 1478 1473 1467
1452 1455 1458 1462 1465 1467 1471 1475 1479 1483 1486 1489 1492 1495 1499 1504 1508 1510 1513 1516 1517 1519 1519 1520 1520 1518 1517 1518 1516 1513 1512 1510 1507 1505 1502 1500 1497 1493 1489 1485 1482 1478 1473
1452 1456 1460 1464 1467 1470 1474 1477 1482 1486 1489 1490 1493 1497 1501 1505 1508 1511 1514 1516 1518 1518 1518 1519 1519 1518 1517 1516 1516 1515 1514 1512 1511 1508 1505 1503 1500 1496 1492 1490 1486 1482 1479
1453 1457 1461 1464 1468 1470 1474 1478 1483 1487 1490 1493 1496 1499 1502 1506 1508 1511 1514 1516 1518 1518 1518 1518 1518 1518 1518 1516 1517 1515 1515 1514 1512 1511 1508 1505 1502 1500 1497 1494 1491 1488 1485
1454 1458 1461 1465 1468 1472 1476 1480 1482 1487 1492 1495 1498 1501 1504 1505 1508 1510 1513 1516 1517 1518 1518 1518 1518 1518 1517 1519 1519 1516 1516 1515 1514 1513 1511 1508 1506 1504 1502 1499 1497 1494 1491
1454 1457 1461 1465 1469 1474 1478 1482 1485 1487 1490 1494 1498 1501 1503 1505 1507 1510 1513 1514 1516 1518 1518 1519 1519 1519 1519 1518 1519 1519 1516 1517 1516 1515 1513 1511 1510 1509 1507 1505 1503 1501 1499
1452 1456 1461 1465 1470 1474 1478 1481 1484 1488 1491 1494 1497 1500 1502 1505 1508 1511 1513 1515 1516 1518 1518 1519 1519 1519 1518 1519 1519 1519 1518 1518 1517 1517 1515 1514 1513 1512 1511 1510 1509 1507 1505
1454 1457 1461 1466 1470 1474 1477 1479 1482 1486 1489 1492 1495 1498 1500 1503 1506 1509 1513 1514 1516 1517 1518 1519 1519 1519 1518 1518 1519 1519 1519 1518 1518 1518 1517 1517 1516 1515 1515 1514 1513 1512 1510
1454 1458 1462 1466 1469 1472 1474 1477 1481 1485 1488 1491 1494 1497 1500 1503 1506 1509 1512 1514 1516 1518 1518 1518 1518 1519 1519 1520 1519 1518 1518 1518 1519 1519 1519 1518 1518 1518 1518 1517 1517 1516 1516
1456 1459 1463 1465 1468 1471 1474 1477 1479 1483 1486 1489 1493 1497 1501 1505 1507 1509 1512 1514 1516 1517 1517 1517 1518 1518 1518 1518 1519 1519 1519 1519 1519 1519 1519 1520 1520 1521 1521 1521 1521 1520 1520
1456 1460 1463 1466 1468 1471 1474 1478 1481 1483 1486 1489 1492 1497 1500 1503 1507 1509 1512 1514 1515 1516 1518 1517 1517 1519 1519 1519 1519 1519 1519 1520 1520 1520 1521 1521 1522 1522 1523 1524 1524 1524 1524
1454 1457 1462 1466 1470 1473 1475 1478 1481 1484 1487 1489 1492 1495 1500 1503 1505 1509 1512 1514 1513 1515 1516 1517 1518 1518 1519 1521 1520 1520 1521 1521 1521 1522 1522 1523 1523 1524 1525 1526 1527 1527 1527
1452 1455 1458 1462 1468 1472 1476 1480 1481 1483 1486 1489 1491 1494 1498 1503 1505 1507 1510 1513 1514 1514 1516 1518 1518 1519 1520 1519 1519 1520 1521 1522 1522 1523 1523 1524 1525 1526 1527 1528 1529 1530 1530
1451 1454 1457 1460 1462 1467 1471 1477 1481 1482 1485 1488 1491 1493 1497 1500 1504 1507 1510 1513 1514 1514 1516 1517 1518 1519 1519 1520 1520 1521 1521 1522 1523 1523 1524 1525 1527 1528 1528 1529 1530 1531 1532